Content
SEND FEEDBACK

Daily
Averages
Monthly
Summary
United States of America

GREENFIELD, MASSACHUSETTS


Home > North America > United States > Massachusetts
Elevation: 190 feet     Latitude: 42 37N     Longitude: 072 33W

WEATHER
 
SELECT A DAY
Number of Records: 215,669;   Date Range: 7/1/96 - 10/18/14
 
SHARE

PRINT THIS DATA

[ ← Previous Day ]
WEATHER ALMANAC - AUGUST 27, 2014
[ Next Day → ]
[ °C ]   °F
Weather ElementAverageHighLow
Temperature72.5 °F86 °F (2:52 pm)60.1 °F (10:52 pm)
Dewpoint64.9 °F71.1 °F (6:52 pm)59 °F (7:52 pm)
Humidity79.1 %97 % (12:52 am)53 % (5:52 pm)
Barometer29.95 in30.03 in (5:52 am)29.87 in (3:52 am)
Wind Speed4.3 mph11.5 mph (2:52 pm)
Weather ElementAverage
Visibility8.9 mi
Wind DirectionSE (138.3 °)

Weather ElementTotal
Precipitation---
Cooling Degree Days8.1 (Base 65)
Growing Degree Days23.1 (Base 50)
Averaged from 24 records on August 27, 2014
WEATHER CONDITIONS BREAKOUT
WIND DIRECTION BREAKOUT
WEATHER BY HOUR - AUGUST 27, 2014
[ °C ]   °F
Local TimeTemperatureDewpointHumidityBarometerVisibilityWind DirectionWind SpeedGust SpeedPrecipitationEventsConditions
1:52 AM68.0 °F64.0 °F87 %30.03 in10.0 miCalmClear
2:52 AM64.0 °F62.1 °F93 %30.02 in10.0 miCalmClear
3:52 AM62.1 °F60.1 °F93 %30.01 in10.0 miCalmClear
4:31 AM61.0 °F60.1 °F97 %30.01 in1.0 miCalmClear
4:42 AM61.0 °F60.1 °F97 %30.01 in1.5 miCalmClear
4:45 AM61.0 °F60.1 °F97 %30.01 in3.0 miCalmClear
5:52 AM60.1 °F59.0 °F96 %30.01 in9.0 miWNW (290°)3.5 mphClear
6:52 AM61.0 °F59.0 °F93 %30.01 in10.0 miCalmClear
7:52 AM66.9 °F63.0 °F87 %30.01 in10.0 miCalmClear
8:52 AM71.1 °F64.0 °F78 %30.00 in10.0 miSouth (170°)5.8 mphClear
9:52 AM75.0 °F64.9 °F71 %29.99 in10.0 miSouth (170°)8.1 mphClear
10:52 AM80.1 °F64.0 °F58 %29.98 in10.0 miWest (260°)9.2 mphClear
11:52 AM82.0 °F64.9 °F56 %29.96 in10.0 miWest (260°)9.2 mphClear
12:52 PM84.9 °F66.0 °F53 %29.93 in10.0 miWSW (240°)11.5 mphClear
1:52 PM86.0 °F66.9 °F53 %29.92 in10.0 miSW (230°)9.2 mphPartly Cloudy
3:52 PM86.0 °F66.9 °F53 %29.88 in10.0 miWest (270°)10.4 mphScattered Clouds
4:52 PM82.9 °F68.0 °F60 %29.88 in10.0 miWNW (300°)8.1 mphThunderstormClear
5:07 PM82.9 °F68.0 °F60 %29.88 in10.0 miNW (310°)4.6 mphClear
6:52 PM80.1 °F71.1 °F74 %29.88 in10.0 miWSW (250°)3.5 mphScattered Clouds
7:52 PM77.0 °F71.1 °F82 %29.89 in10.0 miSouth (170°)9.2 mphMostly Cloudy
8:52 PM73.9 °F71.1 °F91 %29.91 in10.0 miSSE (160°)3.5 mphScattered Clouds
9:52 PM73.0 °F70.0 °F90 %29.89 in10.0 miSSE (160°)4.6 mphPartly Cloudy
10:52 PM71.1 °F69.1 °F93 %29.88 in10.0 miCalmClear
11:52 PM69.1 °F64.9 °F87 %29.87 in10.0 miEast (80°)3.5 mphClear
Hourly data recorded from KORE, located miles away from Greenfield, Massachusetts







STORIES FROM OUR PARTNERS